Location: Codford Saint Peter
(51.1597°N, 2.0531°W)
Time: 12:24:13
(UTC+00:00)

In-Cosmos 22 - Pass Details

Date: 18 September 2020
Orbit: 785 x 877 km, 81.2° (Epoch: 24 October)

Event Time Altitude Azimuth Distance (km) Brightness Sun altitude
Rises 19:07:07 0° 350° (N) 3,291 7.6 -9.0°
Reaches altitude 10° 19:09:34 10° 355° (N) 2,357 6.8 -9.3°
Maximum altitude 19:14:44 51° 72° (ENE) 987 4.3 -10.1°
Drops below altitude 10° 19:19:54 10° 148° (SSE) 2,362 6.1 -10.9°
Enters shadow 19:21:24 - 152° (SSE) 2,931 6.6 -11.1°
